User: anonymous   Login
Location: Asheville, NC
(35.6000°N, 82.5500°W)
Time: 20:35:20
(UTC-04:00)
Language:

CUBEBUG 2 - Orbit

View from above orbital plane
View from above orbital plane
View from above satellite
View from above satellite

Ground track
Ground track

The orbit data is extracted from the following two-line orbital elements,

1 39440U 13066AA  18197.90791696 +.00000162 +00000-0 +29380-4 0  9994
2 39440 097.6003 211.3777 0082076 098.8806 262.1708 14.75691795249103
Epoch (UTC): 16 July 2018 21:47:24
Eccentricity: 0.0082076
inclination: 97.6003°
perigee height: 585 km
apogee height: 700 km
right ascension of ascending node: 211.3777°
argument of perigee: 98.8806°
revolutions per day: 14.75691795
mean anomaly at epoch: 262.1708°
orbit number at epoch: 24910

The dashed part of the orbit path shows where the satellite is in the earth's shadow,  

DLR